Location: Unspecified
(0.0000°N, 0.0000°E)
Time: 00:13:58
(UTC+01:00)

deb Ariane - Visible Passes

Search period start: 22 December 2014 00:00
Search period end: 01 January 2015 00:00
Orbit: 134 x 10379 km, 7.5° (Epoch: 21 December)

Date Brightness Start Highest point End Pass type
(mag) Time Alt. Az. Time Alt. Az. Time Alt. Az.
22 Dec 8.4 01:30:11 56° ENE 01:30:11 56° ENE 02:35:03 10° E visible
22 Dec 8.7 04:57:38 29° W 05:50:10 89° S 07:00:36 10° E visible
23 Dec 8.4 01:40:08 60° ENE 01:40:08 60° ENE 02:48:12 10° E visible
23 Dec 8.7 05:06:52 25° W 06:02:25 88° S 07:10:28 10° E visible
24 Dec 8.3 01:44:56 62° ENE 01:44:56 62° ENE 02:53:40 10° E visible
24 Dec 8.7 05:10:54 24° W 06:06:55 87° S 07:14:22 10° E visible
25 Dec 8.3 01:44:22 61° ENE 01:44:22 61° ENE 02:51:17 10° E visible
25 Dec 8.7 05:09:34 25° W 06:03:28 87° S 07:12:03 10° E visible
26 Dec 8.3 01:38:14 58° ENE 01:38:14 58° ENE 02:40:40 10° E visible
26 Dec 8.6 05:02:36 27° W 05:51:49 87° S 07:03:14 10° E visible
27 Dec 8.4 01:26:17 52° E 01:26:17 52° E 02:21:18 10° E visible
27 Dec 8.5 04:49:48 31° W 05:31:54 87° S 06:47:27 10° E visible
28 Dec 8.5 01:08:16 44° E 01:08:16 44° E 01:52:40 10° E visible
28 Dec 8.3 04:30:54 38° W 05:03:53 88° S 06:24:10 10° E visible
29 Dec 8.6 00:43:53 34° E 00:43:53 34° E 01:14:44 10° E visible
29 Dec 8.1 04:05:35 49° W 04:28:15 89° S 05:52:32 10° E visible
29 Dec 4.4 20:15:11 10° NW 20:15:39 14° NNW 20:15:39 14° NNW visible
30 Dec 8.9 00:12:50 23° E 00:12:50 23° E 00:28:24 10° E visible
30 Dec 7.9 03:33:34 64° WNW 03:45:41 89° N 05:11:20 10° E visible
30 Dec 3.7 19:37:16 10° NNW 19:37:58 12° N 19:38:49 10° NE visible
30 Dec 9.1 23:34:47 11° E 23:34:47 11° E 23:35:22 10° E visible
31 Dec 7.8 02:54:28 83° NW 02:56:42 87° N 04:18:43 10° E visible
31 Dec 8.9 06:16:42 10° W 07:27:13 80° S 08:19:25 10° E visible
